Torna al catalogo

STARLINK-31050

AttivoComunicazioniVLEO
NORAD 58546·PAYLOAD·🇺🇸 United States

Lanciato Dec 8, 2023 da Vandenberg Space Force Base

Loading…

Prossimi Passaggi (prossime 24 ore)

TLE

AggiornatoSource: CelesTrak SupGP

Epoca: Sep 15, 2026, 02:40 UTC

1 58546C 23192R   26258.11159722 -.00018323  00000+0 -54134-3 0  2582
2 58546  53.1586 259.0635 0001328  89.0625 166.7734 15.34401135    14

Traccia STARLINK-31050 in tempo reale con AllMySat

Download on the App Store